User: anonymous   Login
Location: Dammartin
(48.9032°N, 1.6195°E)
Time: 22:35:51
(UTC+00:00)
Language:

AIST 2D - Orbit

View from above orbital plane
View from above orbital plane
View from above satellite
View from above satellite

Ground track
Ground track

The orbit data is extracted from the following two-line orbital elements,

1 41465U 16026B   23335.46650475  .00084939  00000-0  65739-3 0  9994
2 41465  96.9647 204.8378 0004336 354.7510   5.3708 15.71605728426104
Epoch (UTC): 01 December 2023 11:11:46
Eccentricity: 0.0004336
inclination: 96.9647°
perigee height: 351 km
apogee height: 357 km
right ascension of ascending node: 204.8378°
argument of perigee: 354.7510°
revolutions per day: 15.71605728
mean anomaly at epoch: 5.3708°
orbit number at epoch: 42610

The dashed part of the orbit path shows where the satellite is in the earth's shadow,  

DLR